[[{"header":{"parameterUnit":"m.s-1","parameterCategory":1,"la1":30.2991,"la2":30.254,"lo1":-89.0895,"lo2":-89.0444,"dy":0.0017,"dx":0.0017,"nx":28,"ny":28,"refTime":"2025-08-18T09:00:00:Z","depth":0,"parameterNumber":2,"parameterNumberName":"U-component_of_WINDS"},"data":[0,0,0,0,0,0,0,0,0,0,0,0,0,0,0,0,0,0,0,0,0,0,0,0,0,0,0,0,0,0,0,0,0,0,0,0,0,0,0,0,0,0,0,0,0,0,0,0,0,0,0,0,0,0,0,0,0,0,-1.1693,-1.1694,0,-1.1775,-1.1776,-1.1777,-1.1763,-1.1762,-1.176,-1.1759,-1.1843,-1.1846,-1.185,0,0,0,0,0,0,0,0,0,0,0,0,0,-1.1525,-1.1528,-1.1693,-1.1694,-1.1695,-1.1775,-1.1776,-1.1777,-1.1763,-1.1761,-1.176,-1.1758,-1.1842,-1.1846,-1.185,0,0,0,0,0,0,0,0,0,0,0,0,0,-1.1601,-1.1529,-1.1693,-1.1698,-1.1699,-1.1774,-1.1776,-1.1777,-1.1764,-1.1761,-1.1759,-1.1757,-1.184,-1.1845,-1.1851,-1.1926,0,0,-1.1867,-1.1869,0,0,0,0,0,0,0,0,-1.1597,-1.1607,-1.1696,-1.1698,-1.1699,-1.1756,-1.1747,-1.1827,-1.1764,-1.1739,-1.1759,-1.1756,-1.1816,-1.1823,-1.1843,-1.193,-1.1934,-1.1867,-1.1871,-1.1873,-1.1874,0,0,0,0,0,0,0,-1.1592,-1.1604,-1.1725,-1.1697,-1.1699,-1.1696,-1.1704,-1.1762,-1.1788,-1.1741,-1.174,-1.175,-1.1816,-1.1838,-1.1845,-1.1935,-1.1867,-1.1872,-1.1875,-1.1877,-1.2088,-1.209,0,0,0,0,0,0,-1.1585,-1.1599,-1.1723,-1.1728,-1.1642,-1.1701,-1.171,-1.174,-1.1788,-1.1793,-1.1752,-1.1749,-1.183,-1.1839,-1.1848,-1.1939,-1.1873,-1.1878,-1.1881,-1.2085,-1.2088,-1.2091,0,0,0,0,0,0,-1.1581,-1.1596,-1.1719,-1.1663,-1.1679,-1.1706,-1.174,-1.1743,-1.1765,-1.1796,-1.18,-1.1769,-1.1828,-1.184,-1.1907,-1.1942,-1.188,-1.1885,-1.2083,-1.2086,-1.209,-1.2123,0,0,0,0,0,0,-1.1576,-1.1595,-1.1624,-1.1664,-1.1682,-1.1777,-1.1742,-1.1746,-1.1774,-1.1771,-1.1813,-1.1818,-1.1828,-1.1899,-1.1912,-1.1948,-1.1889,-1.208,-1.2084,-1.2088,-1.2118,-1.2127,-1.2134,0,0,0,0,0,-1.157,-1.163,-1.1625,-1.164,-1.1719,-1.1779,-1.1789,-1.1799,-1.1777,-1.1806,-1.1826,-1.1817,-1.1936,-1.1906,-1.1921,-1.1959,-1.2077,-1.2083,-1.2088,-1.2115,-1.2125,-1.2134,0,0,0,0,0,0,-1.1593,-1.1635,-1.1631,-1.1705,-1.1739,-1.1777,-1.1814,-1.1809,-1.185,-1.1846,-1.1856,-1.1866,-1.1933,-1.1952,-1.1918,-1.2034,-1.2004,-1.2012,-1.2019,-1.2029,-1.2036,-1.203,-1.1894,0,0,0,0,0,-1.1607,-1.1652,-1.1687,-1.1749,-1.1766,-1.1787,-1.1814,-1.1818,-1.1854,-1.1868,-1.1893,-1.1927,-1.1972,-1.2001,-1.2045,-1.2121,-1.213,-1.2155,-1.2162,-1.2169,-1.2176,-1.2217,-1.2228,-1.2109,-1.2108,-1.2108,0,0,-1.1636,-1.1664,-1.1692,-1.1754,-1.1781,-1.1828,-1.1799,-1.185,-1.1885,-1.1875,-1.1939,-1.1959,-1.1998,-1.207,-1.2103,-1.2088,-1.2211,-1.2175,-1.218,-1.2184,-1.2224,-1.2235,-1.2245,-1.2112,-1.2111,-1.2111,0,0,-1.1712,-1.1738,-1.1793,-1.182,-1.186,-1.1874,-1.1887,-1.1926,-1.1938,-1.2003,-1.1997,-1.2038,-1.2115,-1.2143,-1.2168,-1.2254,-1.2247,-1.2268,-1.2308,-1.2348,-1.2358,-1.2366,-1.2397,-1.2407,-1.2275,-1.2275,-1.2275,0,-1.1742,-1.1813,-1.1821,-1.1873,-1.19,-1.1893,-1.1949,-1.1974,-1.2027,-1.2046,-1.2029,-1.2126,-1.2152,-1.2229,-1.225,-1.227,-1.2285,-1.2263,-1.2356,-1.2364,-1.2372,-1.2401,-1.2413,-1.2277,-1.2277,-1.2277,-1.2277,0,-1.1848,-1.1897,-1.1936,-1.1987,-1.2018,-1.2071,-1.2088,-1.2119,-1.212,-1.2136,-1.2201,-1.2232,-1.2281,-1.23,-1.2302,-1.2378,-1.2368,-1.2353,-1.2323,-1.2386,-1.2413,-1.2424,-1.228,-1.228,-1.2279,-1.2278,0,0,-1.1941,-1.1996,-1.201,-1.2032,-1.2076,-1.2114,-1.2167,-1.2214,-1.2241,-1.2277,-1.2321,-1.2387,-1.2373,-1.2401,-1.2406,-1.2441,-1.2507,-1.2423,-1.2424,-1.2437,-1.2592,-1.2602,-1.2615,-1.2503,-1.2505,-1.2507,-1.2589,0,-1.2021,-1.2114,-1.2123,-1.2206,-1.2251,-1.2245,-1.2291,-1.2322,-1.2338,-1.2378,-1.2396,-1.2442,-1.2421,-1.2437,-1.2472,-1.2492,-1.2538,-1.2486,-1.2544,-1.2545,-1.2534,-1.263,-1.2641,-1.2717,-1.2599,-1.2601,-1.2603,0,-1.2127,-1.2166,-1.2253,-1.229,-1.2309,-1.235,-1.2395,-1.2433,-1.2469,-1.2478,-1.2509,-1.2509,-1.2563,-1.253,-1.2604,-1.2569,-1.2593,-1.2606,-1.2609,-1.2614,-1.2578,-1.2637,-1.2741,-1.2752,-1.262,-1.2618,-1.2617,0,-1.2185,-1.226,-1.2322,-1.2341,-1.2386,-1.2415,-1.2435,-1.2469,-1.2497,-1.2535,-1.2553,-1.2598,-1.2622,-1.2657,-1.2669,-1.2644,-1.2743,-1.2711,-1.2751,-1.2751,-1.2772,-1.277,-1.2881,-1.2788,-1.2788,-1.2788,-1.2787,0,-1.2273,-1.2327,-1.2348,-1.2386,-1.2446,-1.2456,-1.2515,-1.2533,-1.2563,-1.2604,-1.2602,-1.2641,-1.2655,-1.2696,-1.2706,-1.2766,-1.2777,-1.2785,-1.2787,-1.2785,-1.2784,-1.2801,-1.2796,-1.2791,-1.279,-1.2789,-1.2789,0,-1.2349,-1.2365,-1.2432,-1.2469,-1.248,-1.2522,-1.2553,-1.259,-1.2605,-1.2657,-1.267,-1.2693,-1.2741,-1.2757,-1.2815,-1.2822,-1.2891,-1.2889,-1.2879,-1.2879,-1.2918,-1.2914,-1.3043,-1.306,-1.2957,-1.2958,-1.2959,0,-1.2404,-1.2445,-1.2486,-1.2513,-1.2534,-1.2579,-1.2607,-1.2619,-1.2648,-1.2692,-1.2723,-1.2771,-1.2809,-1.2886,-1.2909,-1.2953,-1.2951,-1.2993,-1.2958,-1.2955,-1.2951,-1.2949,-1.2952,-1.3,-1.3001,-1.3002,-1.3003,0,-1.2499,-1.2505,-1.2546,-1.259,-1.2624,-1.2659,-1.2693,-1.2716,-1.2732,-1.2766,-1.2815,-1.2845,-1.2904,-1.2951,-1.2996,-1.3017,-1.3013,-1.3014,-1.3025,-1.3023,-1.3016,-1.302,-1.2897,-1.3011,-1.301,-1.3009,-1.3009,-1.3008,-1.2566,-1.2602,-1.2636,-1.2682,-1.2708,-1.274,-1.2776,-1.2795,-1.2836,-1.2885,-1.289,-1.2943,-1.2977,-1.3037,-1.306,-1.3101,-1.3089,-1.3106,-1.311,-1.3114,-1.3117,-1.301,-1.3109,-1.3109,-1.3109,-1.3109,-1.3109,0,-1.2661,-1.2683,-1.2724,-1.2772,-1.2808,-1.28,-1.2837,-1.2868,-1.2914,-1.2947,-1.2985,-1.3041,-1.3086,-1.3112,-1.3158,-1.3186,-1.3185,-1.3197,-1.3195,-1.32,-1.3125,-1.311,-1.3197,-1.3197,-1.3197,-1.3197,-1.3197,-1.3197,-1.2714,-1.2775,-1.2785,-1.2858,-1.2879,-1.2931,-1.2953,-1.2982,-1.3007,-1.307,-1.3108,-1.3124,-1.3154,-1.3201,-1.3243,-1.3249,-1.3266,-1.3279,-1.3284,-1.3214,-1.3205,-1.3196,-1.3183,-1.3283,-1.3283,-1.3356,-1.3356,-1.3357]},{"header":{"parameterUnit":"m.s-1","parameterCategory":1,"la1":30.2991,"la2":30.254,"lo1":-89.0895,"lo2":-89.0444,"dy":0.0017,"dx":0.0017,"nx":28,"ny":28,"refTime":"2025-08-18T09:00:00:Z","depth":0,"parameterNumber":3,"parameterNumberName":"V-component_of_WINDS"},"data":[0,0,0,0,0,0,0,0,0,0,0,0,0,0,0,0,0,0,0,0,0,0,0,0,0,0,0,0,0,0,0,0,0,0,0,0,0,0,0,0,0,0,0,0,0,0,0,0,0,0,0,0,0,0,0,0,0,0,-1.9954,-1.9954,0,-1.9912,-1.9912,-1.9912,-1.9871,-1.987,-1.987,-1.9869,-1.9826,-1.9825,-1.9824,0,0,0,0,0,0,0,0,0,0,0,0,0,-1.9996,-1.9996,-1.9954,-1.9954,-1.9953,-1.9913,-1.9912,-1.9911,-1.9871,-1.987,-1.9869,-1.9869,-1.9826,-1.9825,-1.9824,0,0,0,0,0,0,0,0,0,0,0,0,0,-1.9969,-1.9996,-1.9954,-1.9928,-1.9925,-1.9913,-1.9912,-1.9911,-1.9871,-1.987,-1.9869,-1.9869,-1.9826,-1.9825,-1.9824,-1.9834,0,0,-1.9821,-1.9821,0,0,0,0,0,0,0,0,-1.997,-1.9967,-1.9932,-1.993,-1.9927,-1.9896,-1.9911,-1.9885,-1.9871,-1.9891,-1.9869,-1.9868,-1.985,-1.9847,-1.9841,-1.9832,-1.983,-1.9821,-1.982,-1.982,-1.982,0,0,0,0,0,0,0,-1.9972,-1.9969,-1.9938,-1.9932,-1.9928,-1.9917,-1.9913,-1.9906,-1.9875,-1.989,-1.9887,-1.9882,-1.9848,-1.9842,-1.9839,-1.9829,-1.9821,-1.982,-1.982,-1.9819,-1.9825,-1.9825,0,0,0,0,0,0,-1.9978,-1.9971,-1.9939,-1.9936,-1.9947,-1.9917,-1.9912,-1.9907,-1.9875,-1.987,-1.9883,-1.988,-1.9844,-1.984,-1.9838,-1.9845,-1.982,-1.9819,-1.9819,-1.9824,-1.9825,-1.9826,0,0,0,0,0,0,-1.9979,-1.9976,-1.9941,-1.9953,-1.9947,-1.9918,-1.9912,-1.9906,-1.99,-1.987,-1.9865,-1.9882,-1.9843,-1.9839,-1.9835,-1.9843,-1.9819,-1.9818,-1.9823,-1.9824,-1.9825,-1.9863,0,0,0,0,0,0,-1.9981,-1.9977,-1.9981,-1.9953,-1.9947,-1.9939,-1.9912,-1.9906,-1.9898,-1.9895,-1.9868,-1.9863,-1.9842,-1.9836,-1.9834,-1.9842,-1.9817,-1.9822,-1.9823,-1.9825,-1.986,-1.9865,-1.9869,0,0,0,0,0,-1.9982,-1.9993,-1.9981,-1.9977,-1.9951,-1.994,-1.9936,-1.9912,-1.9899,-1.9902,-1.9883,-1.9864,-1.9843,-1.9836,-1.9833,-1.9841,-1.9821,-1.9823,-1.9825,-1.9859,-1.9864,-1.9868,0,0,0,0,0,0,-2.0022,-1.9989,-1.9975,-1.9977,-1.9962,-1.9933,-1.9936,-1.9919,-1.9906,-1.9903,-1.9874,-1.9868,-1.9867,-1.9853,-1.9846,-1.9847,-1.9829,-1.983,-1.9856,-1.9861,-1.9865,-1.9868,-1.9816,0,0,0,0,0,-2.0031,-2.0026,-1.9996,-2.0001,-1.9994,-1.9967,-1.9961,-1.9943,-1.9926,-1.9919,-1.99,-1.9883,-1.9872,-1.9866,-1.9855,-1.9858,-1.9851,-1.9862,-1.9866,-1.9869,-1.987,-1.9869,-1.9873,-1.9831,-1.9831,-1.9831,0,0,-2.005,-2.0031,-2.0029,-2.0008,-1.9994,-1.9988,-1.9961,-1.9956,-1.9951,-1.9918,-1.9913,-1.9898,-1.9877,-1.9876,-1.9875,-1.9865,-1.988,-1.9872,-1.9875,-1.9874,-1.9871,-1.9875,-1.9879,-1.9832,-1.9832,-1.9832,0,0,-2.008,-2.0066,-2.0067,-2.0054,-2.0033,-2.0014,-2.0015,-1.9988,-1.9977,-1.9971,-1.9946,-1.9939,-1.9922,-1.9908,-1.9898,-1.9922,-1.9903,-1.9919,-1.994,-1.9939,-1.9943,-1.9945,-1.9952,-1.9955,-1.992,-1.992,-1.992,0,-2.0106,-2.0096,-2.007,-2.0066,-2.0057,-2.0027,-2.0028,-2.0016,-1.9992,-1.9986,-1.9975,-1.9952,-1.9936,-1.9931,-1.9936,-1.993,-1.9929,-1.9922,-1.9944,-1.9947,-1.9949,-1.9955,-1.9958,-1.9922,-1.9922,-1.9922,-1.9922,0,-2.0128,-2.0121,-2.0125,-2.0102,-2.0094,-2.0092,-2.0065,-2.006,-2.0043,-2.0025,-2.0018,-1.9998,-1.9982,-1.9979,-1.9963,-1.9971,-1.9965,-1.995,-1.9931,-1.9955,-1.9961,-1.9963,-1.9925,-1.9924,-1.9924,-1.9923,0,0,-2.0182,-2.0145,-2.0147,-2.0135,-2.0109,-2.0103,-2.01,-2.0084,-2.0078,-2.0063,-2.0058,-2.0044,-2.0029,-2.0018,-2.0,-1.9999,-2.0017,-1.9984,-1.9983,-1.9989,-2.0023,-2.0034,-2.0037,-2.0005,-2.0005,-2.0005,-2.0024,0,-2.0207,-2.0199,-2.0175,-2.0174,-2.0167,-2.0138,-2.0134,-2.0118,-2.0101,-2.0091,-2.0073,-2.0062,-2.0044,-2.0037,-2.0036,-2.0016,-2.0023,-2.0014,-1.9999,-1.9998,-2.0004,-2.004,-2.0052,-2.007,-2.0026,-2.0026,-2.0026,0,-2.0235,-2.0221,-2.0219,-2.0192,-2.0188,-2.0186,-2.0168,-2.016,-2.014,-2.0127,-2.0115,-2.0094,-2.0087,-2.007,-2.006,-2.0054,-2.0046,-2.0035,-2.0035,-2.0032,-2.0013,-2.0036,-2.0076,-2.0078,-2.003,-2.0029,-2.0029,0,-2.0273,-2.0254,-2.025,-2.0242,-2.021,-2.0209,-2.0196,-2.0175,-2.0166,-2.015,-2.0144,-2.0128,-2.0119,-2.0106,-2.0081,-2.0072,-2.0073,-2.0054,-2.0061,-2.0062,-2.0062,-2.0062,-2.0099,-2.0059,-2.0059,-2.0059,-2.0059,0,-2.0303,-2.0303,-2.0267,-2.0264,-2.0262,-2.0235,-2.0233,-2.0217,-2.0199,-2.0191,-2.0166,-2.0159,-2.0127,-2.0117,-2.0097,-2.009,-2.0087,-2.0075,-2.007,-2.0077,-2.0078,-2.0071,-2.0069,-2.006,-2.006,-2.0059,-2.0059,0,-2.0345,-2.0321,-2.0315,-2.0285,-2.0278,-2.0278,-2.0252,-2.0248,-2.0229,-2.0221,-2.0217,-2.0188,-2.0174,-2.0148,-2.0127,-2.0113,-2.011,-2.0102,-2.0117,-2.0114,-2.0122,-2.0121,-2.0155,-2.0157,-2.0117,-2.0117,-2.0117,0,-2.0365,-2.0364,-2.0335,-2.0328,-2.0316,-2.0306,-2.0297,-2.0269,-2.0261,-2.0237,-2.0235,-2.0219,-2.0205,-2.0184,-2.016,-2.0144,-2.0134,-2.0146,-2.0131,-2.0137,-2.0132,-2.0132,-2.0131,-2.015,-2.015,-2.0151,-2.0151,0,-2.0403,-2.0391,-2.0379,-2.0362,-2.0352,-2.0338,-2.0322,-2.0318,-2.0287,-2.0278,-2.0264,-2.0253,-2.0231,-2.0215,-2.0195,-2.018,-2.016,-2.0156,-2.0157,-2.0164,-2.0172,-2.0166,-2.0126,-2.0156,-2.0155,-2.0155,-2.0155,-2.0155,-2.0433,-2.0431,-2.0409,-2.0396,-2.0382,-2.0367,-2.0361,-2.0342,-2.033,-2.031,-2.0294,-2.0281,-2.0259,-2.0229,-2.0215,-2.0204,-2.0194,-2.0195,-2.0195,-2.0196,-2.0198,-2.0175,-2.02,-2.02,-2.02,-2.0199,-2.0199,0,-2.0469,-2.0453,-2.0442,-2.042,-2.041,-2.0393,-2.0374,-2.0366,-2.0355,-2.0336,-2.0323,-2.0305,-2.0289,-2.0264,-2.0246,-2.0241,-2.0231,-2.0237,-2.0236,-2.0233,-2.0208,-2.0209,-2.0245,-2.0245,-2.0245,-2.0245,-2.0245,-2.0245,-2.0486,-2.0479,-2.0465,-2.045,-2.0435,-2.0422,-2.0412,-2.0398,-2.0383,-2.0365,-2.0352,-2.0336,-2.0313,-2.0293,-2.0277,-2.027,-2.0264,-2.0272,-2.0262,-2.0239,-2.0235,-2.0231,-2.0231,-2.0271,-2.0271,-2.0287,-2.0287,-2.0288]}]]